Погода в Зоркальцево

Россия / Томская область     56°31′19″N   84°44′32″E
темп.,
°C
ветер,
м/с
пор.,
м/с
влажн.,
%
обл.,
%
осадки,
мм/ч
давл.,
гПа
погр.,
м
27 сентября, пн
пн2701:00+3ссв489299 0.5 1021540
04:00+1с399749 0.0 1023305
07:00−2ссз259934 0.0 1025122
10:00+3с35866 0.0 1025332
13:00+7с346941 0.0 10251005
16:00+7с2463100 0.1 10261078
19:00+4ссв3685100 0.1 1026325
22:00+3ссв258984 0.0 1026211
28 сентября, вт
вт2801:00+3ссв2388100 0.0 1025114
04:00+3с2390100 0.0 1024100
07:00+2с249535 0.0 1024141
10:00+4ссв23785 0.0 1023321
13:00+8ссв126142 0.0 10221097
16:00+8ссв225596 0.1 10211241
19:00+6ссв226293 0.1 102130
22:00+5всв2365100 0.0 102165
29 сентября, ср
ср2901:00+4вюв247688 0.0 1020113
04:00+1в2383100 0.0 101951
07:00+1всв278464 0.0 1017156
10:00+4всв4116518 0.0 1016594
13:00+8всв5853100 0.0 1013986
16:00+9всв4855100 0.0 10121235
19:00+6св3865100 0.1 1011365
22:00+5св4982100 0.6 1011745
30 сентября, чт
чт3001:00+3ссв4996100 1.8 1010533
04:00+3с3797100 1.1 1011441
07:00+2ссз3698100 2.4 1012267
10:00+2сз2599100 0.6 1013315
13:00+2зсз2599100 1.3 1014333
16:00+3зсз3799100 0.8 1015538
19:00+3зсз3798100 1.4 1016570
22:00+3з369374 0.1 1016447
1 октября, пт
пт101:00+2зюз379693 0.1 1015223
04:00+2з3698100 0.0 1015507
07:00+2зюз3698100 0.1 1014453
10:00+2юз3798100 0.3 1014358
13:00+2юз4889100 0.4 1014713
16:00+4юз5986100 0.1 1013871
19:00+3зюз4998100 0.9 1013820
22:00+2зсз2598100 1.4 1014424